Vertical_Velocity
-3 1 2 2 -0 -1 2 4 5 5 7 4 -4 7 -4 -7 -3 -5 -1 -7 -3 1 1 2 -1 1 4 1 0 2 2 -1 4 -1 -2 0 -1 -1 -1 0 -2 -3 -1 -1 -2 -2 -3 -5 -2
-2 -1 3 1 2 -2 0 3 3 6 -3 -1 -4 1 -3 -4 -2 -4 2 -4 -1 3 1 1 1 3 2 -1 -0 -2 1 0 -0 0 -1 -2 -1 -1 -2 0 0 0 -1 -1 -1 -3 -1 -1 -3
-3 -2 -0 -1 -3 0 5 3 1 1 5 -7 -2 -4 -3 3 -3 -7 -1 -3 -4 -1 0 2 -1 2 2 0 1 2 4 1 4 1 3 2 1 -0 -2 -2 -3 0 2 2 3 -1 -0 -1 -1
-1 2 -2 -2 5 5 -9 3 -1 6 3 -2 -0 2 -1 -0 -5 -6 1 -1 -2 3 1 -2 0 1 1 1 0 1 2 0 0 -0 -3 -3 -1 -1 -1 -3 -2 -3 -2 -1 -0 -2 0 1 0
2 2 2 1 -1 1 2 8 6 5 -5 -5 -5 3 -2 -4 -3 3 4 3 2 -2 -2 -3 -2 -1 4 2 1 -1 1 1 1 2 4 4 -0 0 1 1 -0 -0 -2 -2 -1 -3 -2 1 1
1 -2 -1 -2 -1 10 18 12 -7 2 2 -3 -0 -2 -3 -1 -2 -3 2 6 2 -1 -0 -3 1 -2 -1 1 1 -0 0 1 1 3 2 4 3 0 -0 -1 -1 -2 -2 -1 0 -1 -1 -1 -0
3 -2 -0 -5 -0 1 -12 13 5 -0 6 -10 -3 -1 -5 -4 -4 -5 3 4 -1 -0 -0 -1 1 2 -1 -2 -1 1 -0 0 1 1 2 0 1 2 0 0 0 1 -2 -2 -2 1 1 -1 0
-2 -2 -4 4 -7 -9 14 7 8 4 3 -7 -9 -7 -3 -2 -5 -2 -5 -2 -1 0 2 3 4 3 1 1 1 0 1 -1 1 0 2 0 2 3 1 0 0 3 2 2 1 -1 -1 -1 -0
2 -4 0 -5 4 7 -0 12 4 2 4 7 -1 -2 -6 -5 -4 -10 -4 0 6 0 2 2 2 1 4 6 3 0 1 -0 -1 1 -0 1 1 2 1 0 0 -1 -1 -2 0 2 -0 -1 -3
-4 -3 3 3 0 11 9 -2 -3 1 -1 3 16 -4 1 0 -2 -5 -8 -9 -3 -2 1 1 2 2 1 2 4 3 2 1 0 0 2 3 3 2 2 5 3 2 1 1 0 -1 0 1 1
-3 -10 10 0 2 9 6 10 3 6 -2 -1 0 -3 -6 -0 -2 -10 1 4 -1 2 0 -1 -0 -3 -1 -2 1 2 2 2 2 2 2 -2 -2 -1 1 1 2 4 2 1 0 2 2 -2 -0
-9 1 2 -1 -0 4 3 4 4 -1 1 1 -2 -1 -3 -5 -1 -4 -9 -5 1 2 -0 -4 2 -0 0 0 -0 -1 0 2 1 -1 -1 -0 0 1 -1 -2 -1 -1 3 -0 -3 1 -0 0 -2
-6 3 2 8 -3 3 10 3 -6 -6 -0 2 5 9 14 13 3 -1 -6 5 -5 -2 -0 3 0 3 2 2 2 2 0 2 -1 1 2 1 -1 -0 3 4 -0 -2 -3 -2 3 2 -0 -2 1
-3 -1 -2 3 -4 -2 1 6 5 -5 9 1 -2 1 -1 6 2 6 3 -9 -1 -2 4 -2 1 1 -5 4 -1 1 2 2 1 -0 -0 0 -4 -7 -5 -2 0 10 5 1 1 -1 -1 3 -0
-2 -11 -8 -0 -2 -3 5 3 -12 0 11 8 -3 0 -0 -1 -0 2 2 2 -9 -6 0 2 4 -0 -0 -2 3 -1 -1 2 1 1 2 1 3 4 1 5 6 -1 -2 -2 -4 2 2 3 -0
-6 4 -6 -2 -3 -1 12 -19 -6 10 3 8 -4 -3 -5 -3 -0 2 3 -0 4 -5 -5 -0 5 7 -1 -1 -3 -1 -3 -3 -4 -4 -1 3 2 0 3 -6 -8 1 -0 -3 -0 -1 2 -1 1
4 -8 -8 -11 11 8 9 -13 -2 6 5 9 -7 -4 -6 0 4 -1 3 1 1 1 -5 -2 0 -1 -1 -0 -1 -0 2 2 -0 -1 -5 -11 -6 -4 1 1 5 2 4 5 1 2 4 3 5
-5 -6 -6 -13 14 9 2 -12 -6 8 0 9 1 -4 -1 -1 0 -6 -1 -1 -3 -0 3 -3 -5 -1 -2 2 1 0 -0 -0 1 0 1 0 -1 2 -3 5 -7 9 4 4 -3 0 2 1 3
3 1 -3 -10 -0 1 -4 4 -6 5 -9 -2 -5 -5 3 -6 -1 -4 -0 -3 -3 -3 -2 0 1 2 1 -1 -1 1 3 3 3 4 5 4 4 1 0 -2 2 1 2 4 -6 -5 -1 10 -3
10 -1 -13 -6 -7 19 13 -12 3 12 12 1 2 -5 -5 -7 -0 -3 -2 1 1 -1 -1 -1 -2 -0 1 1 4 3 2 3 3 2 1 -2 -3 -2 -4 -2 -1 -1 0 0 3 4 1 -3 6
-4 1 -5 -8 6 2 -4 -14 -9 -3 4 16 9 11 3 -1 -1 3 3 4 2 4 1 -1 -1 3 0 1 1 -0 0 -0 -0 -3 -4 -3 -0 -1 -2 -1 2 2 1 -1 3 6 2 -4 4
2 11 2 1 14 -0 8 -14 -8 -7 4 5 6 3 -2 -2 -1 1 -0 3 3 2 1 1 1 -2 -1 -0 -0 -0 0 -1 -0 -0 -1 -0 -3 -3 2 2 1 2 -0 2 4 7 4 7 1
-34 13 4 4 6 8 7 10 -30 0 -11 5 0 1 -1 4 5 4 4 1 3 3 -1 -3 -4 2 3 -1 1 1 2 1 -1 -2 -3 -4 -2 -3 -4 -3 -0 0 2 1 2 2 3 -0 -1
3 6 9 7 8 12 -15 11 -11 -5 -14 -1 -1 0 7 4 5 3 5 2 -0 -4 0 0 -1 -0 0 0 -1 -2 -0 -2 -3 -1 -0 1 6 4 4 7 3 2 -0 1 -1 1 1 5 2
18 15 4 2 4 -7 -10 14 -33 1 -7 -6 2 1 5 5 -1 4 3 1 1 1 2 1 3 -0 -1 -1 -1 -4 -2 -5 -6 -10 -6 -4 -5 -3 -2 3 3 -0 0 2 -3 -1 0 3 -5
-5 1 -11 -6 -2 -6 -0 -2 -31 -17 5 5 9 13 10 4 7 7 0 2 1 -0 1 4 2 2 1 2 1 1 -1 -4 -5 -1 1 2 3 1 -4 -4 2 5 3 -0 1 3 -0 -6 20
-14 15 -13 6 4 1 -3 1 -1 -6 3 -2 1 2 1 3 2 -2 -3 -8 -6 -3 -2 2 -0 -0 2 -1 -0 3 1 -3 -7 -8 -9 -8 -9 -7 -2 -2 1 -5 -2 1 4 5 3 1 -6
4 -4 16 20 -0 -0 -4 1 -4 -9 -9 -0 -2 2 3 3 -1 -3 -2 -2 1 -2 -2 -5 -9 -7 -9 -9 -7 -6 -5 -4 -5 -2 -3 -2 -4 -4 -4 -6 -2 5 4 1 -5 -2 -1 -3 2
2 9 20 2 -3 -5 -1 -10 -7 -5 -8 -13 0 -1 -6 -5 -1 2 2 -1 -2 1 -0 -3 1 -2 -1 1 1 1 -2 -2 -2 -2 -4 -7 -7 -4 -2 1 -2 2 -3 4 -3 -3 -2 -3 -4
3 4 3 1 -1 -1 5 -14 1 -3 2 5 6 3 11 7 5 2 -3 -3 0 0 -1 0 -2 -5 2 -5 -6 -5 -3 -2 -3 -4 0 5 1 3 -0 -0 -0 -2 -4 -1 -0 -6 -3 -4 -7
Height
3165 3167 3168 3169 3174 3171 3170 3173 3172 3171 3170 3170 3172 3171 3171 3174 3176 3180 3176 3175 3177 3179 3180 3180 3181 3183 3184 3184 3185 3184 3184 3185 3184 3184 3184 3184 3185 3184 3184 3184 3184 3184 3184 3183 3182 3181 3180 3180 3179
3166 3167 3169 3169 3172 3171 3170 3171 3173 3171 3168 3170 3170 3171 3171 3173 3174 3176 3177 3178 3179 3179 3180 3180 3180 3181 3183 3184 3184 3184 3184 3185 3185 3185 3184 3184 3184 3184 3184 3184 3184 3184 3184 3183 3182 3181 3181 3180 3179
3166 3167 3170 3170 3170 3170 3172 3172 3172 3170 3170 3170 3171 3171 3173 3173 3176 3177 3178 3177 3179 3180 3179 3179 3180 3181 3183 3184 3184 3185 3185 3185 3184 3185 3184 3184 3183 3184 3184 3184 3183 3183 3183 3183 3182 3182 3181 3181 3180
3165 3168 3170 3169 3170 3171 3171 3171 3172 3171 3170 3170 3171 3172 3173 3174 3175 3177 3177 3177 3179 3179 3179 3179 3179 3180 3182 3183 3184 3184 3185 3184 3184 3183 3184 3184 3183 3183 3183 3183 3183 3182 3182 3181 3181 3181 3181 3180 3179
3166 3167 3168 3168 3171 3172 3172 3171 3171 3169 3169 3169 3170 3171 3172 3173 3175 3176 3176 3177 3178 3179 3179 3179 3179 3179 3181 3182 3182 3184 3184 3184 3184 3184 3184 3183 3183 3182 3182 3182 3182 3182 3182 3181 3181 3179 3179 3179 3179
3166 3166 3166 3167 3168 3169 3171 3170 3170 3169 3168 3169 3170 3169 3171 3172 3174 3175 3176 3177 3178 3179 3178 3178 3179 3180 3180 3181 3182 3183 3183 3182 3182 3183 3184 3183 3182 3183 3182 3181 3181 3181 3180 3180 3180 3180 3179 3178 3178
3165 3165 3165 3165 3166 3168 3170 3170 3168 3167 3166 3167 3169 3168 3170 3171 3172 3174 3175 3176 3177 3178 3177 3178 3179 3179 3180 3179 3179 3180 3180 3180 3181 3181 3181 3181 3181 3181 3181 3181 3180 3180 3179 3179 3179 3179 3178 3178 3177
3163 3163 3163 3164 3166 3163 3165 3167 3168 3167 3165 3164 3168 3168 3168 3168 3170 3172 3174 3175 3176 3177 3177 3177 3178 3178 3179 3178 3178 3178 3178 3178 3178 3179 3178 3178 3178 3178 3178 3179 3178 3178 3178 3178 3178 3177 3176 3175 3176
3162 3162 3161 3165 3164 3165 3168 3168 3168 3166 3165 3165 3164 3166 3167 3168 3168 3171 3173 3174 3174 3175 3175 3176 3176 3177 3177 3177 3177 3177 3176 3177 3177 3177 3177 3177 3176 3176 3176 3176 3176 3176 3175 3175 3174 3174 3174 3174 3173
3160 3158 3160 3162 3165 3166 3168 3167 3166 3166 3164 3164 3163 3165 3163 3163 3164 3167 3169 3170 3171 3172 3173 3173 3173 3173 3174 3174 3174 3175 3174 3174 3174 3174 3174 3173 3173 3173 3173 3173 3173 3173 3173 3173 3172 3171 3170 3170 3170
3156 3154 3158 3159 3163 3164 3166 3166 3165 3164 3163 3163 3162 3160 3161 3161 3161 3163 3166 3169 3170 3170 3169 3169 3169 3169 3170 3170 3170 3171 3171 3171 3171 3171 3170 3170 3170 3170 3170 3169 3169 3169 3169 3170 3169 3169 3168 3167 3167
3152 3152 3155 3155 3158 3160 3162 3163 3163 3162 3162 3161 3159 3158 3157 3157 3158 3159 3162 3163 3165 3166 3166 3166 3167 3167 3167 3167 3167 3168 3168 3168 3167 3167 3167 3167 3167 3166 3166 3166 3166 3165 3165 3164 3164 3165 3165 3164 3163
3149 3149 3151 3152 3153 3155 3157 3158 3159 3160 3159 3159 3159 3160 3159 3157 3156 3158 3158 3159 3161 3162 3162 3164 3165 3165 3164 3162 3162 3163 3164 3163 3163 3163 3163 3163 3163 3163 3164 3163 3162 3162 3161 3160 3160 3160 3160 3159 3158
3147 3146 3145 3146 3148 3149 3150 3152 3153 3156 3155 3154 3155 3156 3157 3157 3156 3152 3153 3155 3155 3157 3158 3160 3161 3160 3159 3159 3158 3157 3158 3159 3159 3159 3160 3160 3159 3159 3159 3158 3158 3157 3157 3156 3156 3155 3153 3153 3153
3141 3142 3140 3140 3142 3144 3146 3144 3146 3151 3152 3150 3150 3150 3151 3153 3155 3152 3148 3148 3150 3150 3152 3156 3157 3155 3153 3153 3155 3155 3155 3155 3155 3155 3155 3156 3155 3154 3153 3154 3153 3152 3151 3150 3149 3148 3147 3147 3146
3136 3138 3135 3137 3139 3140 3143 3134 3141 3145 3146 3145 3144 3144 3147 3148 3151 3151 3146 3144 3145 3148 3149 3151 3152 3151 3149 3150 3150 3151 3150 3151 3152 3152 3152 3152 3151 3150 3149 3147 3147 3147 3146 3144 3143 3142 3141 3140 3139
3132 3132 3132 3132 3134 3135 3137 3132 3135 3138 3139 3140 3138 3139 3142 3142 3144 3146 3145 3143 3142 3144 3146 3146 3148 3148 3147 3148 3148 3148 3148 3146 3145 3145 3146 3147 3147 3145 3144 3142 3141 3141 3140 3138 3136 3136 3134 3132 3132
3125 3127 3128 3129 3131 3131 3130 3127 3130 3132 3134 3134 3130 3133 3136 3137 3139 3141 3141 3141 3140 3139 3140 3141 3143 3144 3145 3145 3144 3144 3144 3144 3144 3143 3141 3140 3138 3138 3137 3136 3135 3134 3132 3131 3129 3128 3127 3125 3123
3123 3124 3125 3124 3125 3127 3124 3122 3125 3128 3129 3127 3126 3129 3131 3133 3132 3134 3135 3138 3138 3138 3138 3138 3138 3140 3141 3141 3142 3142 3141 3141 3140 3138 3137 3136 3135 3133 3132 3131 3130 3127 3125 3123 3122 3120 3118 3116 3116
3119 3119 3119 3119 3122 3125 3122 3120 3121 3123 3124 3123 3123 3126 3125 3126 3125 3127 3130 3133 3133 3134 3134 3133 3134 3136 3136 3137 3136 3136 3136 3136 3135 3135 3133 3132 3131 3129 3126 3124 3122 3120 3117 3114 3112 3109 3107 3106 3106
3112 3112 3113 3115 3117 3118 3119 3117 3116 3117 3119 3119 3120 3120 3118 3118 3119 3121 3123 3128 3130 3130 3130 3129 3130 3131 3132 3132 3131 3131 3131 3130 3130 3129 3128 3127 3124 3121 3117 3114 3111 3108 3105 3103 3101 3098 3095 3092 3092
3106 3108 3110 3112 3113 3112 3115 3111 3110 3112 3114 3114 3114 3112 3111 3111 3113 3116 3120 3122 3123 3124 3125 3125 3126 3127 3127 3127 3127 3127 3126 3125 3122 3120 3119 3118 3115 3112 3107 3103 3100 3096 3093 3091 3088 3085 3083 3080 3077
3101 3106 3107 3108 3107 3104 3105 3105 3099 3105 3106 3106 3107 3105 3106 3106 3108 3111 3114 3115 3116 3117 3118 3120 3121 3123 3123 3123 3123 3121 3119 3116 3114 3112 3109 3107 3103 3099 3096 3093 3090 3086 3082 3080 3077 3075 3073 3071 3067
3101 3102 3103 3102 3102 3095 3096 3098 3090 3092 3096 3099 3098 3098 3099 3099 3102 3106 3108 3109 3109 3111 3113 3114 3116 3117 3118 3117 3115 3113 3111 3108 3105 3100 3098 3096 3092 3087 3083 3080 3075 3073 3070 3067 3065 3062 3059 3058 3056
3096 3098 3098 3100 3096 3083 3089 3090 3084 3085 3088 3091 3091 3092 3094 3094 3096 3098 3099 3102 3104 3105 3108 3109 3111 3111 3111 3110 3109 3106 3101 3098 3095 3092 3087 3083 3079 3076 3073 3069 3065 3061 3059 3056 3053 3051 3049 3046 3042
3082 3087 3087 3094 3088 3080 3084 3073 3073 3078 3081 3084 3086 3088 3087 3088 3089 3090 3092 3095 3098 3101 3104 3105 3106 3106 3105 3102 3098 3095 3092 3090 3088 3082 3077 3071 3066 3062 3059 3057 3055 3051 3047 3045 3042 3039 3036 3033 3030
3074 3073 3081 3082 3079 3077 3072 3067 3065 3069 3073 3073 3077 3080 3081 3082 3082 3083 3085 3088 3091 3093 3096 3099 3099 3099 3097 3095 3093 3089 3087 3083 3077 3072 3067 3063 3058 3055 3050 3045 3042 3039 3036 3034 3032 3029 3024 3021 3017
3064 3072 3075 3073 3076 3076 3064 3060 3057 3060 3065 3069 3070 3071 3074 3075 3076 3079 3081 3083 3085 3085 3088 3090 3091 3090 3087 3084 3079 3075 3071 3067 3063 3058 3054 3050 3047 3044 3041 3038 3035 3031 3028 3024 3022 3019 3016 3011 3006
3055 3057 3061 3065 3064 3063 3062 3053 3053 3055 3059 3063 3065 3065 3067 3070 3072 3075 3076 3078 3080 3082 3083 3083 3081 3079 3077 3074 3072 3066 3061 3058 3053 3049 3046 3042 3039 3036 3031 3028 3024 3021 3017 3015 3011 3008 3004 3002 2998
3044 3046 3049 3051 3054 3054 3052 3048 3050 3052 3054 3059 3059 3062 3064 3067 3068 3070 3074 3077 3076 3077 3077 3074 3072 3071 3070 3065 3061 3057 3053 3049 3046 3042 3038 3034 3029 3026 3022 3018 3014 3011 3008 3006 3002 2998 2994 2990 2986